User: anonymous   Login
Location: Capannuccia
(43.7000°N, 11.3000°E)
Time: 18:33:07
(UTC+00:00)
Language:

SL-4 R/B - Orbit

View from above orbital plane
View from above orbital plane
View from above satellite
View from above satellite

Ground track
Ground track

The orbit data is extracted from the following two-line orbital elements,

1 39679U 14021B   20221.19116078 -.00000052  00000-0  16025-4 0  9998
2 39679  51.6139 227.3096 0172227 124.9821 236.7455 15.06455698347148
Epoch (UTC): 08 August 2020 04:35:16
Eccentricity: 0.0172227
inclination: 51.6139°
perigee height: 428 km
apogee height: 666 km
right ascension of ascending node: 227.3096°
argument of perigee: 124.9821°
revolutions per day: 15.06455698
mean anomaly at epoch: 236.7455°
orbit number at epoch: 34714

The dashed part of the orbit path shows where the satellite is in the earth's shadow,  

DLR